Vorticity
7 5 3 5 5 6 11 6 0 10 14 9 7 7 6 7 8 9 12 11 8 7 7 7 8 10 10 9 8 8 9 9 7 6 5 8 12 18 19 11 7 12 14 14 17 18 14 10 8 5 1 2 5 5 8 10 9 9 12 16 15 12 18 19 9 9 20 26 24 18 13 14 17 16 18 23 26 24 17 10 9 9 11 12 4 13 31
9 6 5 6 5 8 11 4 2 11 14 10 8 6 5 8 9 8 10 12 10 7 7 7 8 9 10 10 9 8 10 9 7 6 6 6 8 15 20 16 10 8 10 14 13 13 13 9 8 9 3 2 6 7 9 10 12 15 13 12 16 15 17 20 14 7 9 14 20 24 20 15 14 12 12 17 21 20 15 12 13 10 10 15 8 9 28
9 7 7 7 6 11 10 1 3 11 11 11 10 5 4 8 11 9 7 10 13 10 7 7 7 8 10 11 9 7 9 11 9 7 7 6 6 12 17 18 16 11 8 12 11 9 11 11 10 11 9 8 7 7 10 10 11 16 15 11 13 15 16 20 19 12 11 11 11 17 23 22 21 18 11 10 14 17 14 10 11 9 11 16 14 18 29
8 5 7 7 8 13 8 0 5 8 8 13 10 3 3 8 12 10 5 7 12 12 9 6 5 7 10 10 9 7 7 11 12 8 6 6 5 8 13 16 20 17 9 10 12 9 8 12 15 15 12 12 9 6 10 11 10 13 14 11 10 11 14 22 25 16 8 11 13 12 16 22 27 29 24 14 8 9 12 11 8 7 9 12 15 25 32
8 5 5 6 10 14 6 1 6 6 6 13 11 4 3 6 11 11 7 7 11 14 12 7 3 5 8 11 11 9 6 8 12 10 6 6 4 5 8 12 19 21 14 9 11 12 8 8 14 16 12 10 11 10 10 11 11 10 11 11 7 6 8 17 31 31 14 9 16 10 4 11 19 26 31 26 15 9 9 10 12 12 11 12 16 24 27
9 7 5 6 12 14 4 2 7 4 5 11 10 5 4 5 6 6 5 6 10 15 16 9 4 4 6 10 11 11 9 7 9 11 9 6 5 4 4 7 14 20 19 13 10 12 11 6 8 12 12 9 9 9 10 13 12 4 2 9 9 8 9 7 15 27 21 17 22 16 9 13 16 20 27 26 23 20 14 11 11 8 8 15 23 26 24
8 9 8 9 14 12 3 4 8 2 3 10 9 4 2 4 6 3 -1 -2 2 11 17 13 6 3 5 8 9 11 12 9 7 11 12 8 6 6 4 4 8 12 18 19 13 9 9 8 7 8 11 11 8 8 10 12 14 4 -6 2 9 10 16 12 3 3 6 13 20 18 18 21 19 21 25 24 25 29 29 32 27 17 21 30 30 31 31
8 10 11 11 12 9 5 7 8 3 1 6 9 6 1 0 6 8 4 -2 -4 2 13 17 10 3 5 7 8 10 13 12 9 9 12 10 7 7 6 4 6 7 11 18 18 11 6 9 10 7 11 13 8 7 9 9 16 11 -8 -4 11 13 15 19 13 5 -1 1 7 9 15 21 20 22 21 15 17 21 24 34 32 23 28 32 29 39 38
7 9 12 11 7 4 6 7 8 6 3 2 6 7 5 2 4 10 12 8 3 0 6 16 14 6 5 6 7 10 11 11 10 9 12 11 8 9 7 4 6 7 7 13 18 15 8 8 10 7 11 16 9 7 11 9 16 16 -3 -5 9 10 7 13 18 18 9 -1 -1 4 12 19 16 17 19 13 11 12 10 15 16 13 16 19 26 36 21
6 9 11 10 3 -1 2 4 5 7 6 4 3 3 5 5 4 9 9 7 10 7 4 12 15 8 5 5 7 10 10 10 9 9 11 11 9 11 9 6 7 8 7 10 15 19 14 9 9 6 10 18 12 6 10 9 14 18 3 -4 2 -1 -2 3 7 16 19 8 1 2 6 9 4 4 16 18 13 13 13 12 11 11 13 18 26 28 14
6 8 8 8 3 -1 1 1 2 4 5 7 7 3 4 4 4 10 6 0 10 16 7 9 15 10 5 5 7 9 10 10 9 10 11 10 9 11 11 9 8 7 8 8 10 17 17 12 10 4 7 19 16 6 8 10 15 17 6 -0 4 1 1 5 5 14 23 19 14 12 7 7 5 4 11 14 10 10 11 10 11 10 10 15 21 21 17
7 7 6 6 3 0 1 1 2 2 1 4 6 6 9 7 4 9 6 -2 8 17 7 7 16 12 6 6 6 9 10 9 9 12 13 11 10 10 10 12 11 7 7 8 8 13 15 13 13 7 4 14 17 9 6 9 15 15 5 1 7 6 7 15 16 16 19 19 22 24 17 10 10 12 10 5 2 3 3 7 13 11 5 9 14 12 10
12 11 9 7 3 -0 -0 1 2 1 -0 2 3 6 12 11 6 9 7 -0 5 11 7 10 17 12 7 6 6 9 10 8 9 13 13 10 10 9 8 12 15 11 6 7 10 13 14 13 15 14 7 7 14 13 7 7 13 13 7 6 12 13 14 18 15 9 9 14 21 29 28 19 17 22 17 7 7 8 1 2 13 13 8 14 18 13 9
14 16 16 14 10 5 2 1 2 3 3 3 1 6 14 12 6 8 8 2 2 6 8 15 17 12 8 8 7 10 11 8 7 12 12 9 9 11 10 9 15 15 8 6 8 11 15 14 13 17 13 4 7 13 10 7 9 10 9 6 6 12 13 9 9 8 6 8 14 19 19 13 18 30 30 26 32 34 22 18 24 19 10 13 17 14 12
6 5 8 11 13 12 9 5 3 5 8 3 -1 8 14 8 5 8 7 3 2 4 11 17 15 12 10 8 7 10 11 9 8 10 11 7 5 11 14 10 11 16 13 8 5 6 13 17 14 17 17 8 4 8 11 11 8 9 11 3 -4 6 11 2 1 6 4 2 4 7 4 -2 1 11 17 19 21 20 24 33 31 18 12 17 18 15 16
-0 -5 -3 2 7 12 15 14 9 6 7 1 -0 10 13 4 4 7 5 5 4 6 15 17 12 11 12 9 8 11 11 10 10 10 11 8 2 5 11 11 10 14 16 13 7 4 8 14 15 16 18 15 10 5 7 12 10 10 13 4 -4 5 6 -5 -5 4 4 1 -0 1 3 3 1 -1 5 17 12 -0 8 24 23 23 33 39 31 19 14
3 1 1 1 6 13 17 17 10 4 4 3 3 10 10 4 5 6 6 8 9 10 17 16 8 10 14 11 9 11 11 11 10 10 10 9 4 2 6 11 12 13 16 16 8 4 5 8 11 14 16 18 17 10 6 9 11 13 11 2 -0 5 -0 -5 1 5 3 6 6 -0 1 10 11 -0 -0 16 20 7 3 9 23 41 43 34 33 36 27
6 7 9 6 9 19 24 18 6 -1 3 6 4 6 8 5 3 6 10 13 10 11 16 12 6 10 15 11 9 11 13 11 10 11 10 7 6 3 3 10 13 12 16 17 9 5 6 5 6 11 13 15 17 14 10 8 10 16 16 6 4 7 0 0 8 4 0 9 11 3 3 13 14 2 -3 6 12 9 5 5 21 37 26 7 19 43 43
13 13 14 9 8 19 26 18 5 1 8 10 2 1 8 7 1 4 13 13 8 10 12 8 7 11 13 11 10 11 13 12 10 11 11 6 5 5 5 9 12 13 17 17 10 7 7 5 4 7 10 13 14 13 13 12 7 12 19 16 10 6 -2 -3 4 3 2 7 7 1 5 10 8 4 3 3 4 9 14 14 13 12 7 5 15 30 37
22 22 16 5 2 12 18 16 9 3 5 6 1 0 9 9 1 5 12 11 6 8 9 7 9 11 11 11 12 12 12 13 11 10 10 7 5 5 7 9 12 15 16 16 12 9 7 5 5 6 7 12 15 12 13 15 10 8 14 15 12 10 6 2 2 3 4 4 3 3 2 0 3 7 5 3 5 10 19 24 17 3 -1 6 15 23 34
18 21 14 3 -2 2 7 12 15 9 2 -1 -1 1 9 9 3 5 12 9 5 7 8 7 10 12 11 12 13 13 12 12 11 10 9 7 5 5 6 9 13 14 15 16 14 11 8 5 5 5 5 8 15 15 12 14 15 12 9 8 9 13 14 10 5 6 8 3 -0 4 2 -2 6 11 3 -0 6 9 14 25 25 14 6 5 12 19 27
7 12 13 10 5 5 6 9 16 18 10 2 -0 2 8 7 1 6 12 7 3 7 9 8 11 13 12 12 13 13 13 10 10 10 9 7 6 5 5 11 14 13 14 17 15 11 10 8 4 4 5 5 8 12 13 13 15 14 11 9 8 9 14 14 9 8 15 11 3 4 4 2 10 10 -2 -1 7 7 12 20 20 22 20 10 12 19 21
3 6 10 11 11 13 14 14 17 18 11 5 3 5 7 4 -1 7 15 6 1 8 11 10 11 11 10 13 14 13 12 10 9 10 9 7 7 6 6 11 16 15 15 17 14 10 11 10 6 4 6 6 6 9 13 13 12 14 16 14 10 6 8 13 10 6 12 13 7 7 8 6 11 9 -2 2 8 4 9 14 13 28 38 19 5 10 12
7 7 8 10 12 14 16 16 16 14 9 9 9 5 4 1 -0 10 17 4 -2 9 12 7 8 9 10 14 15 11 10 10 8 8 8 7 7 8 8 10 14 16 16 15 13 12 11 10 9 6 5 6 5 7 15 16 12 15 18 16 14 10 6 10 9 3 7 14 11 9 7 4 8 7 -0 3 7 3 7 9 5 24 50 40 14 7 9
7 7 9 12 12 12 13 14 16 15 14 13 10 5 2 0 3 15 17 1 -4 10 14 5 4 10 13 15 14 11 10 9 8 8 8 7 7 10 11 11 12 15 17 16 14 13 11 10 11 8 6 6 3 3 12 15 14 16 16 14 17 14 8 11 7 -5 0 15 13 5 4 2 2 4 3 4 5 6 9 8 1 12 39 47 27 12 22
11 11 11 12 11 8 9 11 14 18 19 14 9 6 3 2 10 20 14 -3 -2 12 15 5 3 10 15 15 12 10 9 8 7 9 9 7 8 9 10 12 13 14 15 15 14 13 11 12 12 9 7 7 4 3 8 12 12 15 16 15 18 18 16 17 8 -5 2 14 10 5 9 7 -0 2 8 6 3 7 11 6 4 14 26 33 25 6 13
14 11 9 10 10 9 10 10 9 13 16 14 10 6 5 10 20 21 6 -4 4 14 12 5 5 11 15 14 11 9 9 7 7 9 8 7 9 10 10 13 15 14 13 13 13 12 11 11 12 10 8 7 5 4 7 10 12 14 13 13 16 17 18 17 8 1 4 9 9 12 16 11 3 2 9 9 4 9 11 -1 -1 15 19 19 24 12 7
11 10 10 10 11 13 15 13 10 11 12 11 7 6 8 14 19 13 1 -2 8 14 9 6 9 12 12 12 10 8 8 7 8 9 8 8 10 11 10 12 14 14 13 12 12 12 11 10 10 10 10 9 6 5 8 9 11 12 13 14 14 14 17 17 11 7 3 2 8 12 6 4 8 5 4 11 10 10 10 -2 -6 13 21 13 18 20 10
11 12 12 9 9 13 15 13 11 11 10 8 7 5 5 7 9 5 -0 2 9 12 9 9 12 12 11 9 8 7 8 8 8 8 9 11 13 11 10 11 13 14 14 13 12 12 10 11 11 10 11 11 7 5 7 8 10 11 12 13 14 12 14 14 11 9 5 0 9 15 5 0 9 9 6 13 13 9 9 2 -6 6 18 14 16 26 20
15 14 13 9 8 12 15 13 10 8 7 8 7 2 -1 3 7 4 1 4 9 11 10 12 12 12 10 8 6 7 8 8 8 9 10 12 12 10 10 12 13 15 15 14 14 12 10 10 11 10 11 11 8 5 5 7 10 13 12 14 16 15 13 13 13 14 9 -3 -1 14 14 3 4 12 14 12 8 7 9 4 -5 -4 6 10 12 21 29
15 9 7 9 12 12 10 7 5 5 5 6 7 5 4 7 10 8 7 8 10 10 12 14 13 10 9 7 6 7 8 8 10 11 11 11 11 11 12 13 14 16 16 14 14 12 9 9 11 11 10 9 7 6 8 9 10 11 11 14 17 15 14 15 15 16 14 3 -5 6 17 10 3 7 11 5 3 9 13 7 -2 -5 -2 5 5 5 18
9 4 5 12 14 7 -1 -2 3 8 10 10 10 13 16 17 15 13 12 10 9 11 14 14 12 10 9 7 6 7 8 10 11 11 9 10 11 12 14 15 15 15 15 15 14 11 8 7 10 10 9 8 7 8 10 10 9 10 12 13 15 15 14 12 7 4 11 15 10 5 8 11 5 0 2 3 2 8 15 13 6 4 4 4 5 4 6
3 3 9 16 13 4 0 5 12 14 12 9 8 12 17 19 16 12 10 7 8 12 15 14 12 10 7 6 7 9 10 11 11 9 9 10 12 13 14 16 15 14 14 13 12 9 7 8 10 9 8 8 9 9 10 10 10 10 11 13 14 16 16 11 3 -3 -0 11 19 14 7 9 8 0 1 6 2 -2 8 12 7 8 12 7 3 9 11
4 6 13 16 10 5 7 11 12 10 7 6 8 12 17 17 13 9 8 8 9 13 16 14 11 8 5 5 8 10 11 11 9 9 10 11 13 15 16 15 13 12 11 10 8 7 9 11 11 11 11 10 10 10 10 10 10 8 8 11 15 18 20 16 7 -3 -10 -6 8 18 18 19 21 14 9 12 9 3 7 10 4 5 13 11 4 6 11
5 10 17 17 11 7 5 3 2 4 6 9 13 16 16 13 8 6 7 9 11 15 16 12 8 6 5 6 8 10 11 10 9 9 12 13 14 16 15 12 11 10 8 8 9 11 12 12 11 12 12 11 11 11 10 8 8 8 9 12 14 17 23 26 18 5 -6 -11 -8 2 11 17 22 22 15 10 9 10 11 10 7 7 11 12 10 8 10
4 13 21 20 15 11 7 3 3 8 12 15 17 16 12 8 7 8 9 11 15 16 14 9 7 6 6 7 10 10 10 9 9 11 13 15 15 14 12 10 9 9 8 10 13 13 12 12 12 12 13 12 10 10 8 6 7 10 12 14 16 17 21 28 28 17 4 -7 -12 -7 1 7 12 18 19 10 5 8 11 11 9 9 10 14 13 7 5
8 14 16 13 10 8 6 6 9 13 14 13 12 10 9 8 8 9 11 15 17 15 11 8 7 6 7 9 11 10 8 9 11 13 14 15 12 10 9 8 9 10 10 11 13 13 12 12 12 12 12 12 10 7 7 7 9 12 13 14 17 17 15 18 26 26 17 6 -3 -7 -4 1 5 11 19 19 11 5 6 11 13 10 10 14 16 13 10
7 7 6 6 6 3 1 7 13 14 12 10 10 11 11 10 10 11 14 17 15 11 8 7 6 7 9 10 10 9 8 11 14 14 14 13 10 8 8 10 11 12 11 9 10 13 12 11 12 12 10 9 7 6 7 9 11 14 17 16 16 18 15 11 14 20 22 18 11 2 -2 1 6 7 13 21 20 10 3 6 10 10 9 11 10 8 9
6 6 9 14 13 7 6 12 14 11 9 11 12 12 11 11 12 15 17 16 11 7 6 6 7 9 10 9 9 9 9 13 16 15 11 10 10 8 9 11 12 11 11 9 10 12 12 10 10 10 7 6 6 7 9 12 13 15 18 17 15 16 18 16 14 16 19 21 19 14 7 1 -2 -3 -1 7 16 18 11 2 -3 -1 4 8 5 -0 -1
3 6 15 21 18 14 12 11 9 7 9 10 9 9 12 15 18 18 15 11 7 6 6 7 8 10 10 8 8 9 10 13 15 13 9 9 10 9 10 12 11 11 12 11 9 9 10 9 8 7 6 6 7 9 11 14 16 15 15 15 14 13 14 16 16 16 17 19 21 22 18 9 -0 -5 -7 -7 0 10 15 10 3 -0 4 9 10 7 6
2 10 21 22 15 9 7 5 5 7 7 7 9 14 17 18 17 13 9 7 7 7 7 9 10 10 9 7 7 9 13 15 14 11 8 9 11 12 12 11 10 11 13 12 8 7 9 9 7 6 7 7 10 13 15 16 16 15 12 11 12 12 12 14 15 15 15 16 18 19 21 18 13 7 3 0 -0 2 6 11 12 10 11 15 17 16 14
7 15 19 14 6 4 5 8 10 10 11 14 18 20 17 12 10 8 7 8 8 8 9 11 10 8 7 7 9 11 15 15 12 9 9 9 11 12 12 10 9 12 12 9 7 8 8 8 6 7 10 12 14 16 17 16 14 14 12 10 10 11 11 12 13 14 14 15 16 17 18 18 16 12 8 7 8 6 3 5 8 10 10 13 17 18 16
13 15 12 8 6 8 10 10 9 11 16 21 21 16 11 9 9 9 9 9 10 11 11 9 8 6 7 9 12 14 15 13 9 8 10 11 10 11 11 9 9 9 9 8 8 8 7 8 10 11 14 16 17 16 15 14 13 11 11 11 10 11 11 11 12 14 15 14 14 15 16 17 17 16 13 11 12 14 10 4 3 9 11 7 6 12 18
16 17 15 10 8 8 8 8 10 15 18 17 12 8 8 9 10 10 10 11 10 10 8 5 5 7 9 12 15 15 13 11 9 9 11 12 10 8 9 9 8 8 8 8 9 9 9 11 13 14 15 16 16 15 14 14 14 13 12 11 10 10 11 11 11 12 14 14 14 14 14 15 16 17 18 16 16 20 21 12 2 4 8 1 -8 -4 6
22 18 12 6 7 9 10 11 15 17 14 9 8 8 8 9 8 8 9 9 8 6 5 4 7 10 12 15 16 14 10 9 11 10 9 10 10 8 8 8 7 7 9 9 9 11 13 14 14 14 15 15 14 15 14 12 12 12 12 12 11 11 10 10 11 11 12 13 14 13 13 14 14 14 16 17 15 19 25 23 12 5 5 2 -5 -6 -2
15 8 5 8 14 16 14 12 13 13 9 7 7 8 7 7 8 8 8 7 5 3 4 7 11 15 17 17 14 11 9 10 12 10 8 9 10 8 7 7 7 8 10 12 12 13 15 14 13 13 14 13 12 13 13 12 11 11 11 10 11 11 11 10 11 11 12 13 13 12 11 12 12 11 11 12 12 13 19 25 22 13 6 3 4 3 0
6 6 10 14 12 9 8 10 11 9 7 6 7 8 7 7 8 8 7 5 3 3 8 14 17 18 18 15 11 10 11 11 10 9 8 9 9 7 6 7 10 11 12 14 14 13 13 13 12 11 11 10 10 11 11 12 11 11 11 10 9 9 10 10 9 9 10 11 11 11 10 10 12 12 11 10 9 9 11 19 25 23 12 2 0 3 4
7 9 9 7 4 5 9 11 9 6 5 5 6 7 6 7 8 8 6 4 5 10 16 19 19 17 14 12 10 11 11 10 9 9 9 7 7 7 8 10 12 14 14 13 12 12 11 11 10 9 9 10 11 11 11 12 13 13 12 12 11 10 10 10 9 8 9 8 7 7 7 7 8 10 11 10 10 9 8 9 16 23 22 13 3 -0 2
8 7 5 4 4 7 10 8 5 4 6 6 5 5 6 8 9 7 4 6 12 18 20 19 17 14 12 11 11 11 10 9 8 8 8 7 7 8 11 13 13 13 12 11 10 10 10 10 10 11 12 12 13 14 14 13 14 14 15 15 15 14 13 12 11 10 10 9 8 6 6 6 7 8 9 9 10 11 11 9 9 13 19 21 16 8 3
9 10 9 8 7 7 7 6 7 8 8 7 6 7 10 11 8 5 6 12 19 21 20 18 15 13 11 10 10 9 9 8 7 6 7 8 10 12 13 13 12 10 10 11 10 10 11 11 12 13 14 14 15 16 16 15 16 16 17 17 18 17 17 16 16 14 13 12 11 9 8 7 8 8 9 9 9 10 11 13 12 11 13 16 18 17 13
11 11 8 6 7 7 7 8 11 11 8 6 7 9 9 7 3 4 11 19 22 20 18 15 13 11 11 10 9 8 7 6 7 7 9 11 12 12 12 11 10 9 10 11 11 11 13 14 14 14 14 15 15 17 17 17 18 18 18 19 20 20 20 19 19 19 18 16 15 13 11 10 10 10 10 11 11 10 11 13 15 15 14 12 12 14 15
4 4 6 7 8 7 4 5 7 7 5 5 7 7 4 3 5 12 20 24 21 17 15 12 10 10 10 8 7 7 7 7 8 10 12 12 12 12 10 10 10 10 10 11 13 13 14 14 14 14 15 16 17 18 18 18 19 19 19 20 20 20 21 21 21 21 21 20 19 17 14 13 11 11 11 11 11 11 11 13 15 17 17 14 11 10 11
Height
5773 5772 5770 5768 5765 5762 5760 5758 5756 5753 5750 5747 5744 5742 5738 5735 5732 5729 5725 5723 5720 5716 5712 5708 5705 5701 5698 5695 5692 5689 5685 5681 5677 5674 5671 5668 5664 5661 5658 5656 5653 5650 5648 5646 5645 5643 5640 5638 5636 5634 5631 5629 5626 5624 5621 5618 5615 5613 5610 5607 5604 5602 5600 5598 5595 5593 5590 5588 5586 5585 5585 5585 5585 5586 5587 5588 5589 5589 5591 5592 5594 5595 5595 5597 5598 5596 5602
5771 5769 5768 5766 5763 5761 5758 5756 5754 5751 5749 5746 5744 5741 5738 5734 5731 5728 5725 5721 5719 5715 5712 5708 5705 5701 5697 5694 5691 5689 5685 5681 5677 5674 5670 5667 5664 5661 5658 5655 5653 5650 5648 5646 5644 5642 5640 5638 5635 5633 5631 5628 5626 5624 5621 5619 5616 5613 5610 5607 5604 5601 5599 5597 5595 5592 5590 5588 5586 5584 5584 5584 5584 5585 5585 5586 5587 5588 5589 5590 5591 5591 5591 5595 5595 5593 5602
5768 5767 5765 5764 5761 5759 5756 5754 5752 5749 5747 5744 5742 5740 5737 5733 5730 5727 5724 5721 5718 5714 5711 5708 5704 5701 5697 5693 5690 5687 5685 5681 5678 5674 5670 5667 5664 5661 5658 5656 5653 5651 5648 5645 5643 5641 5639 5637 5635 5632 5630 5628 5626 5624 5622 5619 5616 5613 5610 5607 5604 5601 5599 5597 5594 5592 5590 5588 5586 5584 5584 5583 5582 5583 5583 5584 5586 5586 5586 5588 5587 5587 5590 5592 5591 5592 5602
5766 5765 5763 5761 5759 5757 5755 5752 5750 5747 5745 5742 5740 5738 5736 5732 5729 5726 5723 5720 5717 5714 5710 5707 5703 5700 5697 5693 5689 5686 5683 5681 5677 5674 5670 5667 5664 5661 5658 5656 5653 5650 5647 5644 5642 5639 5637 5636 5634 5632 5630 5627 5625 5623 5621 5619 5617 5614 5611 5607 5604 5601 5599 5596 5594 5592 5590 5588 5586 5585 5584 5583 5581 5581 5581 5581 5582 5583 5584 5584 5584 5585 5588 5588 5588 5592 5599
5764 5762 5761 5759 5757 5755 5753 5751 5748 5746 5743 5741 5739 5737 5734 5731 5729 5725 5722 5719 5715 5712 5709 5705 5702 5699 5696 5693 5689 5685 5683 5680 5677 5674 5670 5667 5664 5661 5658 5655 5652 5649 5646 5644 5641 5639 5637 5635 5634 5632 5629 5627 5625 5623 5621 5619 5617 5614 5611 5608 5605 5602 5599 5597 5595 5592 5590 5588 5586 5585 5584 5582 5581 5580 5579 5579 5579 5580 5580 5580 5582 5584 5584 5583 5586 5590 5592
5762 5760 5759 5757 5755 5753 5752 5750 5747 5744 5742 5739 5737 5735 5733 5730 5727 5724 5721 5717 5714 5711 5708 5704 5701 5698 5696 5693 5689 5685 5682 5680 5677 5674 5670 5667 5663 5660 5657 5655 5652 5649 5647 5645 5642 5640 5637 5635 5633 5631 5629 5626 5624 5622 5621 5619 5617 5614 5611 5608 5606 5603 5600 5598 5595 5593 5591 5588 5586 5585 5584 5583 5581 5580 5579 5578 5578 5577 5578 5579 5580 5581 5580 5580 5584 5585 5585
5760 5758 5756 5755 5753 5751 5750 5748 5746 5743 5740 5738 5736 5734 5731 5728 5726 5723 5720 5716 5713 5710 5706 5703 5700 5697 5694 5692 5689 5685 5682 5678 5676 5674 5670 5666 5663 5660 5656 5653 5651 5649 5647 5644 5642 5640 5637 5635 5633 5631 5629 5626 5624 5622 5621 5619 5617 5614 5611 5609 5606 5604 5601 5599 5596 5594 5592 5589 5587 5585 5584 5583 5581 5580 5579 5578 5577 5576 5577 5577 5578 5578 5577 5579 5581 5581 5583
5757 5756 5754 5753 5751 5749 5748 5746 5744 5741 5739 5737 5734 5732 5729 5727 5724 5722 5719 5716 5712 5709 5706 5702 5699 5696 5693 5691 5688 5685 5681 5678 5675 5673 5670 5666 5663 5659 5656 5653 5650 5648 5645 5643 5641 5638 5636 5634 5632 5630 5628 5626 5624 5622 5620 5618 5616 5614 5611 5609 5607 5605 5602 5600 5597 5595 5593 5590 5588 5586 5584 5583 5581 5580 5579 5578 5577 5577 5576 5577 5577 5577 5576 5578 5579 5580 5583
5755 5753 5752 5751 5749 5747 5746 5744 5742 5740 5737 5735 5733 5731 5728 5726 5723 5720 5718 5715 5712 5708 5705 5701 5698 5695 5692 5689 5687 5684 5681 5677 5674 5671 5669 5666 5662 5659 5656 5652 5649 5647 5644 5642 5640 5637 5635 5634 5632 5630 5628 5626 5624 5622 5620 5618 5616 5613 5611 5609 5607 5605 5603 5600 5598 5596 5593 5591 5589 5586 5584 5582 5582 5581 5579 5578 5577 5577 5577 5577 5577 5577 5577 5577 5578 5579 5583
5753 5751 5749 5748 5747 5745 5743 5742 5740 5738 5736 5733 5731 5729 5727 5724 5721 5718 5716 5714 5711 5707 5704 5701 5697 5694 5690 5687 5685 5682 5680 5677 5674 5670 5668 5666 5662 5659 5656 5653 5650 5647 5644 5642 5639 5637 5635 5633 5631 5630 5628 5626 5624 5622 5620 5618 5615 5612 5610 5608 5606 5605 5603 5601 5598 5596 5594 5591 5589 5587 5585 5583 5582 5581 5580 5579 5578 5578 5577 5577 5577 5577 5576 5577 5578 5581 5584
5750 5748 5747 5746 5744 5743 5741 5740 5738 5736 5734 5732 5729 5727 5725 5722 5720 5717 5714 5712 5710 5706 5703 5699 5696 5693 5689 5686 5683 5680 5678 5676 5673 5670 5667 5665 5662 5659 5656 5653 5651 5648 5645 5642 5639 5637 5635 5633 5631 5630 5628 5626 5624 5622 5620 5618 5615 5612 5610 5608 5607 5605 5603 5601 5598 5596 5594 5592 5590 5587 5585 5584 5582 5581 5580 5579 5579 5578 5577 5576 5576 5576 5575 5576 5578 5581 5583
5747 5746 5744 5743 5742 5740 5739 5737 5736 5734 5732 5730 5728 5726 5723 5720 5718 5715 5712 5709 5708 5705 5702 5698 5694 5691 5688 5685 5681 5678 5676 5674 5672 5669 5666 5664 5661 5658 5655 5653 5650 5648 5645 5642 5639 5636 5634 5632 5631 5629 5627 5625 5623 5622 5620 5618 5615 5613 5610 5609 5608 5606 5604 5602 5599 5597 5594 5592 5590 5588 5585 5583 5582 5581 5580 5578 5577 5577 5576 5576 5576 5576 5575 5576 5577 5579 5581
5744 5742 5741 5740 5739 5737 5736 5734 5733 5731 5730 5728 5726 5723 5721 5719 5716 5714 5711 5707 5705 5703 5701 5697 5693 5689 5686 5684 5681 5677 5674 5671 5669 5668 5665 5662 5661 5657 5654 5651 5650 5647 5645 5642 5639 5636 5634 5632 5630 5628 5627 5625 5623 5622 5620 5618 5616 5614 5612 5611 5609 5607 5605 5603 5600 5597 5595 5593 5590 5588 5587 5585 5583 5582 5581 5579 5578 5577 5576 5576 5576 5576 5575 5575 5576 5577 5579
5741 5739 5738 5737 5735 5734 5733 5731 5730 5728 5726 5725 5723 5721 5719 5717 5714 5711 5709 5705 5701 5700 5699 5696 5692 5688 5685 5683 5680 5676 5673 5669 5667 5665 5663 5660 5659 5657 5653 5650 5648 5646 5644 5642 5639 5637 5634 5631 5629 5627 5625 5624 5622 5621 5620 5618 5616 5615 5613 5611 5610 5608 5606 5603 5600 5598 5596 5593 5591 5589 5588 5587 5585 5583 5582 5580 5579 5578 5576 5576 5576 5575 5574 5574 5575 5576 5577
5737 5736 5734 5733 5732 5730 5729 5728 5726 5725 5723 5721 5720 5718 5716 5714 5712 5709 5707 5703 5699 5697 5696 5694 5691 5688 5684 5681 5679 5676 5673 5669 5666 5663 5662 5659 5657 5656 5654 5650 5647 5645 5643 5641 5639 5637 5634 5631 5629 5626 5624 5623 5622 5620 5619 5618 5616 5614 5612 5611 5609 5607 5605 5603 5601 5598 5596 5594 5592 5589 5588 5586 5585 5583 5582 5580 5579 5577 5575 5575 5576 5575 5573 5572 5573 5574 5575
5733 5732 5731 5729 5728 5726 5725 5724 5723 5721 5719 5718 5716 5715 5713 5711 5709 5707 5704 5701 5696 5693 5693 5692 5689 5686 5683 5679 5676 5674 5671 5669 5665 5662 5660 5658 5655 5653 5652 5649 5646 5643 5641 5640 5638 5636 5633 5631 5628 5626 5624 5623 5621 5619 5618 5616 5615 5613 5612 5610 5608 5606 5605 5604 5601 5599 5597 5595 5593 5590 5588 5586 5585 5584 5583 5581 5579 5577 5575 5574 5573 5572 5571 5570 5569 5570 5571
5729 5728 5727 5725 5723 5722 5721 5720 5718 5717 5716 5714 5713 5712 5710 5708 5707 5704 5702 5700 5695 5689 5689 5689 5687 5684 5681 5678 5674 5672 5670 5667 5664 5661 5659 5657 5653 5651 5649 5647 5644 5642 5639 5638 5636 5634 5632 5630 5628 5626 5623 5621 5620 5619 5617 5616 5614 5613 5611 5609 5608 5607 5605 5604 5602 5600 5598 5596 5594 5592 5590 5588 5586 5584 5583 5581 5579 5576 5574 5571 5570 5568 5568 5567 5566 5566 5567
5726 5724 5723 5721 5719 5718 5716 5715 5714 5713 5712 5711 5709 5708 5707 5705 5704 5702 5699 5697 5693 5687 5686 5686 5685 5682 5680 5676 5672 5670 5668 5665 5663 5660 5658 5656 5653 5649 5647 5645 5642 5640 5638 5636 5635 5633 5631 5629 5626 5624 5622 5620 5618 5617 5616 5615 5614 5612 5611 5609 5608 5607 5605 5603 5602 5600 5598 5597 5595 5592 5591 5589 5587 5584 5582 5580 5578 5576 5573 5571 5569 5568 5568 5567 5566 5565 5565
5721 5720 5719 5717 5715 5714 5712 5711 5711 5710 5709 5707 5705 5704 5704 5702 5701 5699 5697 5695 5691 5686 5682 5683 5682 5680 5677 5674 5670 5668 5666 5664 5661 5658 5656 5654 5651 5648 5646 5643 5641 5639 5636 5635 5633 5632 5630 5628 5625 5623 5621 5619 5617 5615 5614 5614 5613 5612 5611 5609 5608 5607 5606 5603 5601 5600 5599 5597 5595 5592 5590 5589 5587 5585 5583 5580 5577 5575 5574 5572 5570 5569 5569 5568 5566 5565 5564
5717 5715 5714 5713 5712 5710 5708 5707 5707 5706 5705 5704 5701 5700 5700 5699 5698 5696 5694 5692 5689 5684 5680 5679 5679 5678 5675 5672 5669 5666 5663 5661 5659 5656 5654 5653 5650 5647 5644 5642 5639 5637 5635 5633 5632 5630 5629 5627 5624 5622 5620 5619 5617 5615 5613 5612 5611 5611 5610 5608 5607 5606 5605 5603 5601 5599 5598 5597 5594 5591 5589 5588 5586 5585 5583 5580 5577 5575 5574 5573 5571 5569 5568 5567 5565 5564 5563
5713 5711 5710 5709 5708 5706 5704 5703 5703 5702 5701 5700 5698 5696 5696 5696 5695 5693 5691 5690 5687 5683 5678 5675 5675 5675 5673 5670 5667 5664 5661 5659 5656 5654 5651 5650 5649 5645 5642 5640 5638 5635 5633 5632 5630 5629 5627 5626 5624 5621 5619 5618 5616 5614 5612 5611 5609 5608 5608 5608 5606 5604 5603 5602 5600 5598 5596 5595 5593 5590 5588 5588 5587 5584 5582 5580 5578 5576 5574 5572 5570 5569 5567 5565 5564 5563 5562
5709 5708 5706 5705 5704 5702 5701 5699 5698 5698 5697 5696 5695 5693 5692 5692 5691 5689 5688 5687 5684 5681 5677 5673 5672 5672 5671 5668 5664 5662 5659 5656 5654 5652 5649 5648 5646 5644 5640 5638 5636 5633 5631 5630 5628 5627 5626 5624 5623 5621 5618 5616 5615 5613 5611 5610 5609 5607 5606 5606 5605 5604 5602 5600 5599 5598 5595 5594 5593 5591 5590 5589 5588 5585 5583 5581 5579 5576 5574 5571 5570 5568 5566 5564 5563 5562 5562
5705 5704 5703 5701 5700 5698 5697 5695 5694 5693 5693 5692 5692 5690 5689 5688 5687 5686 5684 5683 5681 5678 5674 5671 5669 5668 5667 5665 5662 5659 5656 5654 5652 5649 5647 5645 5644 5642 5639 5636 5634 5632 5629 5628 5626 5625 5624 5623 5621 5620 5617 5615 5614 5612 5610 5609 5608 5606 5605 5604 5603 5602 5601 5600 5599 5598 5597 5594 5592 5591 5590 5589 5588 5586 5584 5580 5577 5575 5574 5571 5569 5567 5564 5563 5563 5562 5561
5701 5700 5699 5698 5696 5695 5693 5692 5690 5689 5689 5689 5688 5687 5685 5684 5683 5682 5681 5679 5678 5675 5672 5668 5666 5665 5664 5662 5659 5656 5654 5651 5649 5647 5645 5643 5641 5639 5637 5634 5632 5630 5628 5626 5624 5623 5622 5621 5620 5619 5617 5614 5613 5611 5610 5608 5606 5605 5604 5603 5601 5600 5600 5599 5598 5597 5596 5595 5593 5592 5591 5589 5587 5585 5584 5581 5578 5576 5573 5571 5569 5566 5563 5562 5562 5561 5561
5697 5696 5695 5694 5693 5691 5689 5688 5687 5686 5685 5685 5684 5683 5681 5680 5680 5679 5677 5676 5674 5672 5669 5665 5663 5662 5661 5659 5656 5654 5651 5649 5647 5645 5643 5640 5638 5636 5634 5632 5630 5628 5626 5624 5623 5621 5620 5619 5618 5617 5615 5613 5611 5610 5608 5607 5605 5604 5603 5602 5600 5599 5598 5598 5597 5595 5594 5592 5592 5591 5590 5588 5584 5583 5582 5581 5579 5578 5575 5572 5570 5566 5564 5562 5562 5561 5560
5692 5692 5691 5690 5689 5687 5686 5684 5683 5682 5682 5681 5681 5680 5678 5676 5676 5675 5673 5672 5671 5669 5666 5663 5660 5659 5658 5656 5654 5651 5649 5646 5645 5643 5640 5638 5636 5634 5632 5630 5627 5625 5623 5622 5621 5619 5618 5617 5616 5615 5614 5612 5610 5608 5607 5605 5603 5602 5601 5600 5599 5597 5596 5595 5595 5594 5592 5590 5589 5589 5589 5587 5584 5583 5582 5580 5579 5578 5576 5573 5571 5568 5565 5563 5562 5561 5559
5688 5687 5686 5685 5685 5683 5682 5681 5680 5679 5679 5678 5677 5676 5675 5673 5672 5671 5669 5668 5667 5665 5663 5660 5657 5655 5654 5653 5651 5649 5646 5644 5642 5640 5638 5635 5633 5631 5629 5627 5625 5623 5621 5619 5618 5617 5615 5614 5614 5613 5612 5611 5609 5607 5605 5603 5601 5600 5599 5598 5596 5595 5594 5593 5592 5591 5590 5589 5587 5587 5587 5586 5584 5583 5582 5581 5580 5579 5576 5573 5571 5569 5566 5564 5562 5561 5559
5684 5683 5682 5681 5681 5680 5678 5678 5677 5676 5675 5675 5674 5673 5671 5669 5668 5667 5665 5664 5663 5661 5659 5657 5654 5652 5651 5649 5648 5646 5643 5641 5639 5637 5635 5633 5630 5628 5626 5625 5623 5621 5619 5617 5616 5614 5613 5612 5611 5610 5610 5609 5607 5605 5603 5602 5600 5598 5596 5595 5594 5593 5592 5590 5589 5589 5588 5587 5585 5585 5585 5584 5583 5582 5580 5580 5580 5579 5576 5573 5571 5570 5567 5565 5563 5561 5560
5680 5679 5678 5677 5676 5676 5675 5674 5673 5672 5671 5671 5670 5669 5667 5666 5665 5663 5661 5660 5659 5658 5656 5653 5651 5649 5647 5646 5644 5642 5640 5638 5636 5634 5632 5630 5628 5625 5623 5622 5620 5618 5617 5615 5613 5612 5610 5610 5609 5608 5607 5607 5606 5604 5602 5600 5598 5596 5594 5593 5592 5591 5589 5587 5587 5586 5586 5585 5584 5583 5582 5582 5581 5580 5579 5579 5579 5578 5576 5573 5572 5571 5569 5566 5565 5563 5561
5676 5675 5674 5673 5672 5672 5671 5670 5669 5668 5667 5667 5666 5665 5663 5662 5661 5659 5657 5656 5655 5654 5652 5650 5648 5646 5644 5642 5640 5639 5637 5636 5633 5631 5629 5627 5625 5623 5621 5619 5617 5615 5614 5612 5611 5609 5608 5607 5606 5606 5605 5604 5604 5602 5601 5599 5596 5594 5592 5591 5590 5589 5587 5585 5584 5584 5584 5583 5582 5581 5580 5580 5580 5578 5577 5576 5577 5577 5576 5573 5572 5571 5570 5568 5566 5565 5563
5672 5671 5670 5669 5668 5668 5668 5667 5665 5664 5663 5662 5662 5661 5660 5658 5656 5654 5653 5652 5651 5650 5649 5647 5644 5643 5641 5638 5636 5635 5633 5632 5630 5628 5626 5624 5622 5620 5618 5616 5614 5612 5611 5610 5608 5607 5605 5604 5604 5603 5602 5601 5601 5600 5598 5597 5595 5593 5590 5589 5588 5586 5585 5583 5582 5581 5581 5581 5580 5579 5577 5577 5577 5577 5576 5576 5575 5576 5575 5573 5572 5571 5571 5569 5566 5564 5563
5668 5667 5666 5665 5665 5664 5664 5663 5662 5660 5659 5658 5658 5657 5655 5654 5652 5650 5650 5649 5647 5646 5645 5643 5641 5639 5637 5635 5633 5631 5630 5628 5627 5625 5623 5621 5619 5617 5616 5613 5611 5610 5608 5607 5606 5604 5603 5601 5601 5600 5599 5598 5597 5596 5595 5594 5593 5591 5589 5587 5586 5584 5583 5582 5581 5579 5578 5578 5578 5578 5577 5575 5575 5575 5576 5576 5575 5575 5574 5573 5571 5571 5570 5569 5566 5564 5563
5664 5663 5662 5662 5661 5660 5660 5659 5658 5656 5655 5654 5653 5652 5651 5649 5648 5647 5646 5645 5643 5642 5641 5639 5637 5635 5633 5631 5629 5628 5627 5625 5623 5622 5620 5618 5616 5614 5612 5611 5609 5607 5606 5605 5603 5602 5600 5599 5598 5597 5596 5594 5593 5592 5592 5591 5590 5588 5587 5585 5584 5582 5581 5580 5579 5578 5576 5575 5575 5575 5575 5574 5574 5573 5574 5574 5575 5574 5573 5571 5570 5569 5569 5568 5567 5565 5563
5660 5659 5658 5658 5657 5656 5655 5654 5653 5652 5651 5650 5649 5648 5647 5645 5644 5643 5642 5641 5640 5639 5637 5635 5633 5631 5629 5627 5626 5625 5623 5621 5620 5618 5616 5615 5613 5611 5609 5607 5606 5604 5603 5602 5600 5599 5598 5596 5595 5594 5593 5591 5590 5589 5588 5587 5586 5585 5583 5582 5581 5580 5578 5577 5576 5575 5575 5574 5572 5571 5571 5571 5571 5571 5571 5571 5572 5572 5571 5569 5568 5568 5567 5567 5566 5564 5563
5655 5654 5654 5653 5652 5652 5651 5650 5649 5648 5647 5646 5645 5643 5642 5641 5640 5638 5638 5637 5636 5635 5633 5631 5629 5627 5625 5623 5622 5621 5620 5618 5617 5615 5613 5611 5609 5608 5606 5604 5603 5601 5600 5598 5597 5596 5594 5593 5592 5591 5589 5588 5587 5586 5585 5584 5582 5580 5579 5578 5577 5576 5575 5574 5573 5572 5572 5572 5571 5570 5569 5569 5569 5569 5569 5569 5569 5569 5568 5567 5566 5566 5565 5565 5565 5564 5563
5650 5649 5649 5648 5647 5647 5646 5646 5645 5644 5643 5642 5641 5639 5638 5636 5635 5634 5634 5633 5632 5631 5629 5627 5625 5623 5621 5620 5619 5618 5616 5615 5613 5611 5609 5607 5605 5604 5602 5601 5599 5598 5596 5595 5593 5592 5591 5589 5588 5587 5586 5585 5584 5582 5581 5580 5578 5577 5575 5574 5572 5572 5571 5570 5570 5569 5568 5568 5568 5568 5567 5567 5566 5566 5566 5566 5566 5566 5566 5565 5564 5564 5563 5563 5563 5562 5562
5645 5645 5645 5644 5643 5642 5642 5641 5640 5639 5638 5637 5636 5635 5634 5633 5631 5631 5630 5629 5628 5627 5625 5623 5621 5619 5617 5616 5615 5614 5613 5611 5609 5608 5606 5604 5602 5600 5599 5597 5596 5594 5593 5591 5590 5589 5588 5586 5585 5583 5582 5581 5580 5579 5577 5576 5574 5573 5571 5570 5568 5567 5566 5566 5566 5565 5565 5564 5564 5565 5565 5564 5564 5564 5564 5564 5564 5564 5563 5563 5562 5562 5561 5561 5560 5560 5560
5641 5641 5641 5640 5638 5638 5637 5636 5636 5635 5634 5633 5632 5631 5630 5629 5628 5627 5626 5625 5624 5623 5621 5619 5617 5615 5614 5613 5612 5611 5609 5607 5606 5604 5602 5600 5598 5597 5595 5594 5592 5591 5589 5587 5586 5585 5584 5582 5581 5580 5579 5578 5577 5575 5573 5571 5569 5568 5567 5565 5564 5563 5562 5562 5561 5561 5561 5561 5561 5561 5561 5561 5561 5561 5561 5561 5561 5561 5561 5561 5560 5560 5559 5558 5558 5558 5558
5636 5636 5636 5635 5634 5633 5632 5632 5631 5631 5630 5629 5628 5627 5626 5625 5624 5623 5622 5621 5620 5618 5616 5614 5613 5612 5611 5609 5608 5607 5606 5604 5602 5600 5598 5597 5595 5594 5592 5590 5589 5587 5585 5584 5583 5582 5580 5579 5577 5576 5575 5574 5573 5571 5569 5567 5565 5563 5562 5561 5560 5559 5558 5557 5557 5557 5556 5557 5557 5557 5558 5558 5559 5559 5559 5558 5558 5558 5558 5558 5558 5557 5557 5556 5556 5556 5556
5632 5631 5630 5629 5629 5628 5628 5628 5627 5627 5626 5625 5625 5623 5622 5621 5620 5619 5618 5617 5616 5614 5612 5610 5609 5608 5607 5606 5604 5603 5602 5601 5599 5597 5595 5593 5592 5590 5589 5587 5586 5584 5582 5580 5579 5578 5576 5575 5574 5572 5571 5570 5568 5566 5565 5562 5560 5559 5558 5557 5556 5555 5554 5553 5553 5552 5552 5552 5552 5553 5554 5554 5555 5556 5556 5556 5556 5556 5556 5555 5555 5555 5554 5554 5554 5554 5554
5627 5626 5625 5624 5624 5624 5624 5624 5623 5623 5622 5621 5620 5619 5618 5617 5616 5615 5614 5613 5611 5610 5608 5607 5606 5605 5603 5602 5601 5599 5598 5597 5595 5593 5592 5590 5589 5587 5585 5583 5582 5580 5579 5577 5575 5574 5572 5571 5570 5568 5567 5566 5564 5562 5560 5558 5557 5555 5554 5552 5551 5551 5550 5549 5548 5548 5547 5547 5548 5548 5549 5549 5550 5551 5552 5553 5553 5553 5553 5553 5552 5552 5552 5552 5552 5552 5552
5621 5620 5620 5620 5620 5620 5620 5619 5619 5619 5618 5617 5616 5615 5614 5613 5612 5611 5610 5609 5607 5606 5604 5603 5602 5601 5600 5598 5597 5595 5594 5592 5591 5590 5588 5586 5585 5583 5581 5580 5578 5577 5576 5574 5572 5570 5569 5568 5566 5564 5563 5561 5560 5558 5556 5554 5553 5551 5550 5549 5547 5546 5546 5545 5544 5544 5543 5543 5543 5543 5544 5544 5545 5546 5547 5548 5549 5549 5549 5549 5549 5549 5549 5550 5550 5549 5549
5616 5616 5616 5616 5616 5616 5616 5615 5615 5615 5614 5613 5612 5611 5610 5609 5609 5607 5606 5605 5603 5602 5601 5600 5598 5597 5595 5594 5592 5591 5590 5588 5587 5586 5584 5583 5581 5580 5578 5576 5575 5573 5572 5570 5568 5566 5565 5563 5561 5560 5559 5557 5555 5553 5552 5550 5549 5547 5546 5545 5544 5543 5542 5541 5540 5540 5539 5538 5538 5538 5539 5539 5539 5540 5541 5542 5543 5544 5545 5545 5545 5545 5546 5546 5546 5545 5545
5611 5612 5612 5612 5612 5612 5611 5611 5611 5610 5609 5609 5608 5607 5606 5606 5605 5603 5602 5601 5599 5598 5597 5596 5594 5592 5591 5590 5588 5587 5585 5584 5583 5582 5580 5579 5577 5575 5574 5572 5571 5569 5568 5566 5564 5562 5560 5558 5556 5555 5554 5552 5550 5549 5547 5546 5545 5543 5542 5541 5539 5538 5538 5537 5536 5535 5535 5534 5533 5533 5533 5534 5534 5534 5535 5536 5537 5538 5539 5540 5541 5542 5542 5542 5542 5541 5542
5607 5608 5608 5608 5608 5608 5607 5607 5607 5606 5606 5605 5604 5603 5603 5602 5600 5599 5598 5597 5596 5594 5593 5591 5590 5588 5587 5585 5584 5582 5581 5580 5579 5577 5576 5575 5573 5571 5569 5568 5566 5565 5563 5561 5559 5557 5555 5553 5551 5550 5548 5547 5546 5544 5543 5541 5540 5539 5538 5536 5535 5534 5533 5532 5532 5531 5530 5529 5529 5528 5528 5528 5529 5529 5529 5530 5531 5532 5533 5535 5536 5537 5538 5538 5538 5538 5538
5603 5603 5603 5603 5603 5604 5603 5603 5603 5602 5602 5601 5600 5599 5598 5598 5596 5595 5594 5593 5592 5590 5588 5587 5585 5584 5582 5581 5580 5578 5577 5576 5575 5573 5572 5570 5569 5567 5565 5563 5562 5560 5558 5556 5554 5552 5550 5549 5547 5545 5544 5543 5541 5540 5538 5537 5536 5534 5533 5532 5530 5529 5528 5527 5527 5526 5525 5525 5524 5524 5523 5523 5523 5524 5524 5525 5525 5526 5528 5529 5531 5532 5533 5533 5533 5534 5535
5599 5599 5599 5599 5599 5599 5599 5599 5599 5598 5598 5597 5596 5595 5594 5593 5592 5591 5590 5589 5587 5586 5584 5583 5581 5579 5578 5577 5576 5574 5573 5572 5571 5569 5568 5566 5565 5563 5561 5559 5557 5556 5554 5551 5549 5547 5546 5544 5542 5541 5539 5537 5536 5535 5533 5532 5531 5529 5528 5526 5525 5524 5523 5522 5521 5521 5520 5520 5519 5518 5518 5518 5518 5518 5519 5520 5520 5521 5522 5523 5525 5526 5527 5528 5529 5529 5530
5595 5595 5595 5595 5595 5595 5595 5595 5595 5594 5594 5593 5592 5591 5590 5589 5588 5587 5586 5585 5583 5582 5580 5578 5577 5575 5574 5573 5572 5571 5569 5568 5567 5565 5564 5562 5560 5558 5557 5555 5553 5551 5549 5547 5545 5543 5541 5539 5537 5535 5533 5532 5530 5529 5527 5526 5524 5523 5522 5521 5519 5518 5517 5516 5516 5515 5515 5514 5513 5513 5512 5512 5512 5513 5513 5514 5515 5515 5516 5517 5519 5520 5522 5522 5523 5524 5525
5590 5591 5591 5591 5591 5591 5591 5591 5590 5590 5589 5588 5587 5586 5585 5585 5584 5583 5582 5580 5579 5577 5575 5574 5572 5571 5570 5569 5568 5567 5566 5564 5563 5561 5559 5558 5556 5554 5552 5550 5548 5546 5544 5542 5540 5538 5536 5534 5532 5530 5528 5526 5524 5522 5520 5519 5517 5516 5515 5514 5513 5512 5511 5510 5509 5509 5508 5508 5507 5507 5507 5507 5507 5507 5507 5508 5509 5510 5511 5511 5513 5514 5516 5516 5517 5518 5519
5586 5586 5586 5586 5586 5586 5586 5586 5586 5585 5585 5584 5583 5582 5581 5581 5580 5579 5578 5576 5574 5572 5571 5570 5568 5567 5566 5565 5564 5563 5561 5560 5559 5557 5555 5553 5551 5549 5547 5545 5543 5541 5539 5538 5536 5533 5531 5529 5527 5524 5522 5520 5518 5516 5514 5512 5511 5509 5508 5507 5506 5505 5504 5503 5502 5502 5502 5501 5501 5501 5501 5501 5501 5501 5502 5502 5503 5504 5505 5506 5507 5508 5509 5511 5511 5512 5513
5581 5582 5582 5582 5582 5582 5582 5582 5582 5581 5580 5580 5579 5578 5577 5576 5575 5574 5573 5571 5569 5568 5567 5566 5565 5563 5562 5561 5560 5559 5557 5556 5554 5552 5551 5549 5547 5545 5543 5541 5539 5537 5535 5533 5531 5528 5526 5524 5521 5518 5516 5514 5512 5510 5508 5506 5504 5503 5501 5500 5499 5497 5496 5495 5495 5494 5494 5494 5494 5494 5494 5494 5494 5495 5495 5496 5497 5497 5498 5499 5501 5502 5503 5504 5506 5507 5508
5577 5577 5577 5577 5578 5578 5578 5578 5577 5577 5576 5575 5574 5573 5572 5571 5570 5569 5568 5566 5565 5564 5563 5562 5561 5560 5559 5558 5556 5555 5553 5551 5550 5548 5546 5544 5542 5540 5538 5536 5534 5532 5530 5528 5526 5524 5521 5518 5516 5513 5511 5509 5507 5505 5503 5500 5499 5497 5495 5493 5492 5490 5489 5488 5487 5487 5486 5486 5486 5486 5486 5486 5487 5487 5488 5489 5490 5491 5492 5493 5494 5496 5497 5498 5499 5501 5502